Regional Weather Roundup
Issued by NWS Midland/Odessa, TX

Home | Current Version | Previous Version | Text Only | Print | Product List | Glossary On
Versions: 1 2 3 4 5 6 7 8 9 10 11 12 13 14 15 16 17 18 19 20 21 22 23 24 25 26 27 28 29 30 31 32 33 34 35 36 37 38 39 40 41 42 43 44 45 46 47 48 49 50
000
ASUS44 KMAF 170210
RWRMAF
MIDLAND AREA WEATHER ROUNDUP
NATIONAL WEATHER SERVICE MIDLAND TX
900 PM CDT MON OCT 16 2017

...IN SOUTHWEST TEXAS AND SOUTHEAST NEW MEXICO...

CITY           SKY/WX    TMP DP  RH WIND       PRES   REMARKS
ALPINE         CLEAR     55  33  44 CALM      30.43S
ANDREWS        FAIR      56  35  45 S6        30.33S
ARTESIA        CLEAR     59  34  38 SE10      30.31R
BIG SPRING     CLEAR     54  38  55 CALM      30.34S
CARLSBAD       CLEAR     54  38  54 S5        30.30R
DRYDEN           N/A     61  35  37 SE3       30.30R
FORT STOCKTON  CLEAR     58  40  51 SE6       30.33S
GUAD PASS      CLEAR     57  32  38 NE13      30.40S
HOBBS          CLEAR     50  34  53 SW8       30.33S
LAMESA         FAIR      52  43  71 SE10      30.33S
MARFA          CLEAR     55  37  50 CALM      30.40R
MIDLAND AIRPK  CLEAR     60  37  42 S3        30.34R
MIDLAND INTL   CLEAR     59  36  42 S6        30.33R
ODESSA         NOT AVBL
PECOS          CLEAR     56  43  61 CALM      30.32R
PRESIDIO         N/A     73  25  16 NE8       30.30R
SEMINOLE       CLEAR     51  35  55 S3        30.34R
SNYDER         CLEAR     60  33  35 S5        30.32F
WINK           CLEAR     56  41  57 S6        30.31R
$$
...OTHER STATIONS IN TEXAS...

CITY           SKY/WX    TMP DP  RH WIND       PRES   REMARKS
ABILENE        CLEAR     59  35  40 SE7       30.31S
AMARILLO       CLEAR     58  34  40 S14       30.27R
AUSTIN         CLEAR     58  43  57 N3        30.26R
BROWNSVILLE    CLEAR     71  56  58 N7        30.20R
CORPUS CHRISTI CLEAR     66  50  56 N9        30.23R
DALLAS FTW     CLEAR     62  41  46 N7        30.27R
DEL RIO        CLEAR     61  42  49 W5        30.27R
EL PASO        CLEAR     73  41  31 N3        30.28S
HOUSTON INT    PTCLDY    64  50  60 N3        30.23R
LUBBOCK        CLEAR     57  31  37 S10       30.30R
SAN ANGELO     CLEAR     57  38  48 SE5       30.30S
SAN ANTONIO    CLEAR     62  41  46 NW3       30.28R
WACO           CLEAR     56  40  55 N6        30.28R
WICHITA FALLS  CLEAR     54  41  61 S8        30.25R
$$
...OTHER LOCATIONS IN NEW MEXICO...

CITY           SKY/WX    TMP DP  RH WIND       PRES   REMARKS
ALAMOGORDO     CLEAR     59  34  38 SE7       30.32R
ALBUQUERQUE    CLEAR     60  26  27 SE6       30.35R
CANNON AFB     CLEAR     53  37  55 SW9       30.31S
CLOVIS         CLEAR     50  40  68 SW8       30.31R
HOLLOMAN AFB   CLEAR     65  36  34 S5        30.32R
ROSWELL        CLEAR     57  37  47 S8        30.31R
RUIDOSO        CLEAR     55  23  28 S6        30.46R
SANTA FE       CLEAR     55  25  31 E5        30.38R
TRUTH OR CONSE CLEAR     69  40  34 CALM      30.32R
TUCUMCARI      CLEAR     58  37  45 SW10      30.23S
$$



USA.gov is the U.S. government's official web portal to all federal, state and local government web resources and services.